User: anonymous   Login
Location: Cimarron National Grasslands
(37.1250°N, 101.7500°W)
Time: 00:33:49
(UTC-05:00)
Language:

Ariane Rocket - Orbit

View from above orbital plane
View from above orbital plane
View from above satellite
View from above satellite

Ground track
Ground track

The orbit data is extracted from the following two-line orbital elements,

1 23561U 95021B   14302.79259250  .00000444  00000-0  16382-3 0  9055
2 23561 098.7002 270.3552 0006412 217.7990 204.3045 14.37366287 23119
Epoch (UTC): 29 October 2014 19:01:19
Eccentricity: 0.0006412
inclination: 98.7002°
perigee height: 762 km
apogee height: 772 km
right ascension of ascending node: 270.3552°
argument of perigee: 217.7990°
revolutions per day: 14.37366287
mean anomaly at epoch: 204.3045°
orbit number at epoch: 2311

The dashed part of the orbit path shows where the satellite is in the earth's shadow,  

DLR